This demonstration page uses our WeatherBlox Daily Observations layout. Learn more.

Left ArrowRight Arrow

44.8408, -93.29828

Hourly Observations for May 3, 2021

Temp ( °F °C ) Dew Point ( °F °C ) Humidity (%) Winds ( mph kmh ) Pressure ( in mb ) Visibility ( mi km ) Precip ( " mm )
12:53 am 00:53 Cloudy 58 14.4 51 10.6 78 78 NE 7 11 29.55 1001 10 16 0.00 0.00
1:53 am 01:53 Cloudy 58 14.4 50 10 75 75 N 7 11 29.56 1001 10 16 0.00 0.00
2:53 am 02:53 Mostly Cloudy 56 13.3 48 8.9 75 75 NNE 8 13 29.55 1001 10 16 0.00 0.00
3:53 am 03:53 Mostly Cloudy 55 12.8 46 7.8 72 72 N 7 11 29.55 1001 10 16 0.00 0.00
4:53 am 04:53 Mostly Cloudy 53 11.7 44 6.7 72 72 N 10 17 29.57 1001 10 16 0.00 0.00
5:53 am 05:53 Mostly Cloudy 50 10 42 5.6 74 74 N 8 13 29.58 1002 10 16 0.00 0.00
6:53 am 06:53 Cloudy 49 9.4 41 5 74 74 N 9 15 29.59 1002 10 16 0.00 0.00
7:53 am 07:53 Cloudy 50 10 42 5.6 74 74 N 8 13 29.62 1003 10 16 0.00 0.00
8:53 am 08:53 Cloudy 52 11.1 43 6.1 72 72 N 12 19 29.62 1003 10 16 0.00 0.00
9:53 am 09:53 Cloudy 54 12.2 43 6.1 67 67 NNW 10 17 29.64 1004 10 16 0.00 0.00
10:53 am 10:53 Cloudy 57 13.9 44 6.7 62 62 N 9 15 29.65 1004 10 16 0.00 0.00
11:53 am 11:53 Mostly Cloudy 60 15.6 45 7.2 58 58 NNW 12 19 29.67 1005 10 16 0.00 0.00
12:53 pm 12:53 Mostly Cloudy 63 17.2 46 7.8 54 54 N 17 28 29.67 1005 10 16 0.00 0.00
1:53 pm 13:53 Mostly Cloudy 65 18.3 46 7.8 51 51 N 14 22 29.68 1005 10 16 0.00 0.00
2:53 pm 14:53 Mostly Cloudy 66 18.9 45 7.2 47 47 N 17 28 29.69 1005 10 16 0.00 0.00
3:53 pm 15:53 Mostly Cloudy 64 17.8 43 6.1 46 46 N 18 30 29.70 1006 10 16 0.00 0.00
4:53 pm 16:53 Mostly Cloudy 63 17.2 40 4.4 43 43 N 17 28 29.72 1007 10 16 0.00 0.00
5:53 pm 17:53 Mostly Cloudy 62 16.7 44 6.7 52 52 NNW 21 33 29.75 1008 10 16 0.00 0.00
6:53 pm 18:53 Mostly Cloudy 58 14.4 43 6.1 58 58 NNW 18 30 29.79 1009 10 16 0.00 0.00
7:53 pm 19:53 Mostly Cloudy 57 13.9 39 3.9 51 51 N 20 31 29.82 1010 10 16 0.00 0.00
8:53 pm 20:53 Mostly Cloudy 55 12.8 40 4.4 57 57 N 14 22 29.86 1011 10 16 0.00 0.00
9:53 pm 21:53 Mostly Cloudy 54 12.2 38 3.3 55 55 N 20 31 29.90 1012 10 16 0.00 0.00
10:53 pm 22:53 Cloudy 53 11.7 38 3.3 57 57 N 13 20 29.91 1013 10 16 0.00 0.00
11:53 pm 23:53 Cloudy 53 11.7 38 3.3 57 57 N 13 20 29.91 1013 10 16 0.00 0.00

Powered by AerisWeather